Location: Flint Hill Observatory
(31.1875°N, 100.5222°W)
Time: 05:19:07
(UTC-05:00)

Daily predictions for brighter satellites

Satellite Brightness Start Highest point End
(mag) Time Altitude Azimuth Time Altitude Azimuth Time Altitude Azimuth
SL-16 R/B 4.4 03:41:56 18° N 03:41:56 18° N 03:43:31 10° N
Resurs 1-4 Rocket 3.4 04:10:14 10° NNE 04:13:28 37° NNE 04:13:28 37° NNE
CZ-4C R/B 4.0 04:26:34 22° NNW 04:26:34 22° NNW 04:29:33 10° N
ATLAS 5 CENTAUR R/B 3.5 04:27:26 29° E 04:27:26 29° E 04:30:48 10° NE
ARIANE 5 R/B 3.9 04:23:19 10° N 04:26:14 34° N 04:26:14 34° N
Meteor 2-3 Rocket 4.3 04:23:04 10° N 04:28:42 53° E 04:29:01 52° E
Okean O Rocket 3.3 04:32:12 10° NE 04:35:52 29° E 04:35:52 29° E
SL-16 R/B 2.6 04:48:06 64° NW 04:48:06 64° NW 04:53:25 10° NNW
Cosmos 2251 Rocket 4.4 04:54:36 39° NNW 04:54:36 39° NNW 04:58:17 10° N
Cosmos 1943 3.4 04:54:02 60° NNW 04:54:02 60° NNW 04:59:01 10° NNE
SeaSat 1 3.3 04:50:06 10° SE 04:54:48 47° ENE 04:59:31 10° N
Meteor 2-10 4.0 05:01:42 77° W 05:01:42 77° W 05:07:14 10° N
Skynet4D Del rocket 4.4 05:01:10 56° SW 05:02:28 64° S 05:09:41 10° ESE
Cosmos 2242 Rocket 4.5 05:05:54 40° NNW 05:05:54 40° NNW 05:09:02 10° N
CZ-3A R/B 4.2 05:00:05 37° W 05:04:43 59° NNW 06:13:08 10° NE
Cosmos 1455 3.2 05:08:34 42° N 05:08:34 42° N 05:11:15 10° N
Cosmos 1110 Rocket 3.8 05:03:14 10° NNW 05:08:28 81° WSW 05:08:47 77° SSW
CZ-2D R/B 4.3 05:05:04 10° N 05:08:17 44° NNW 05:08:17 44° NNW
CZ-2D R/B 3.1 05:06:01 10° N 05:09:38 31° NW 05:09:38 31° NW
Cosmos 2369 Rocket 2.4 05:05:22 10° NNW 05:10:58 69° ENE 05:16:34 10° SSE
CZ-4B R/B 3.4 05:06:22 10° NNE 05:11:38 63° ESE 05:13:51 34° S
Meteor 2-11 Rocket 4.3 05:16:41 50° SW 05:18:13 70° W 05:24:17 10° N
Cosmos 1862 Rocket 3.3 05:24:25 74° SW 05:24:42 79° W 05:29:05 10° N
CZ-4B R/B 2.6 05:22:59 10° NNE 05:26:39 79° ESE 05:26:53 74° SSE
NOSS 3-3 (A) 4.4 05:22:40 10° NNW 05:30:18 76° WSW 05:38:17 10° SSE
NOSS 3-3 (C) 4.4 05:22:46 10° NNW 05:30:25 77° WSW 05:38:25 10° SSE
PAYLOAD B 4.1 05:25:34 10° N 05:31:06 79° WNW 05:33:45 32° SSW
Cosmos 1709 Rocket 4.1 05:25:16 10° NNW 05:31:26 56° W 05:34:40 28° SSW
Cosmos 1933 3.7 05:34:52 22° S 05:37:21 64° E 05:41:25 10° NNE
Cosmos 2263 4.2 05:32:20 10° NNW 05:38:09 85° ENE 05:43:56 10° SSE
CENTAUR R/B 2.4 05:38:04 32° SW 05:41:04 82° WNW 05:47:41 10° NNE
Cosmos 1869 3.7 05:41:51 43° WNW 05:41:51 43° WNW 05:45:30 10° N
Cosmos 389 Rocket 2.4 05:42:08 59° WNW 05:42:08 59° WNW 05:45:28 10° N
Cosmos 1943 Rocket 3.0 05:39:42 10° N 05:45:15 54° ENE 05:50:44 10° SE
Okean 1-7 4.4 05:45:46 10° SSE 05:49:45 39° E 05:53:46 10° NNE
ADEOS Rocket 3.7 05:43:24 10° NNE 05:51:10 77° ESE 05:58:52 10° S
Cosmos 2074 Rocket 4.0 05:46:08 10° N 05:52:22 89° E 05:58:36 10° S
ATLAS CENTAUR R/B 1.1 05:48:18 10° NNW 05:52:27 74° WSW 05:56:14 10° SSE
Cosmos 839 Rocket 4.4 05:45:46 10° NW 05:52:56 49° WSW 05:58:58 10° S
Cosmos 2184 Rocket 4.1 05:46:38 10° N 05:53:02 86° E 05:59:23 10° S
Cosmos 1825 2.9 05:50:12 10° N 05:53:55 55° E 05:57:37 10° SSE
Resurs 1-4 Rocket 4.0 05:52:38 10° NW 05:54:33 12° WNW 05:54:33 12° WNW
Cosmos 2327 Rocket 4.4 05:48:47 10° N 05:54:54 90° W 06:01:05 10° S
Cosmos 1733 Rocket 3.5 05:54:43 10° NNW 05:58:47 39° W 06:01:08 21° SSW
Cosmos 1302 Rocket 4.1 05:54:20 10° NNW 05:59:25 51° WSW 06:04:27 10° S
Atlas Centaur 2 3.3 05:58:04 17° SSW 06:00:53 29° SSE 06:05:51 10° E
Cosmos 1408 2.7 06:01:23 10° N 06:05:07 80° E 06:08:52 10° S
COSMOS 2487 4.3 06:02:35 10° SSE 06:05:48 31° E 06:09:02 10° NE
Cosmos 2221 Rocket 3.5 06:04:29 10° S 06:08:56 75° W 06:13:23 10° N
ATLAS 5 CENTAUR R/B 3.2 06:09:00 18° W 06:11:05 24° NW 06:15:11 10° N
Okean-O 2.6 06:07:44 10° N 06:12:08 65° WNW 06:16:31 10° SSW
Okean O Rocket 3.1 06:09:05 10° NNW 06:12:13 19° WNW 06:13:19 17° W
ADEOS II 2.0 06:09:50 10° N 06:15:05 75° WNW 06:20:19 10° SSW
Cosmos 2285 Rocket 4.2 06:13:59 10° NNW 06:20:26 80° ENE 06:26:48 10° SSE
Cosmos 1184 Rocket 4.2 06:20:22 10° NW 06:22:58 20° W 06:24:29 16° SW
Cosmos 1908 Rocket 3.8 06:20:25 10° NNW 06:24:37 47° W 06:28:46 10° SSW
Thor Agena Rocket 3.9 06:20:37 10° S 06:25:24 42° W 06:30:17 10° NNW
CSL-04 DEB 4.5 06:22:16 10° N 06:26:26 68° WNW 06:30:41 10° SSW
COSMOS 2406 3.6 06:21:40 11° SW 06:26:59 45° WNW 06:32:30 10° N
Sich 1 Rocket 4.2 06:24:19 10° NNW 06:28:14 33° W 06:32:09 10° SSW
CZ-4B R/B 4.2 06:25:37 10° NNE 06:30:09 89° ESE 06:34:36 10° SSW
SeaSat 1 3.8 06:29:22 10° SW 06:32:27 17° WSW 06:35:31 10° WNW
Ariane Rocket 3.9 06:27:45 10° NNE 06:32:41 52° E 06:37:37 10° S
Cosmos 1703 Rocket 4.5 06:32:40 10° SW 06:36:34 30° W 06:40:30 10° NNW
BREEZE M DEB (TANK) 4.0 06:35:20 10° S 06:37:06 19° ESE 06:39:50 10° ENE
Cosmos 1190 Rocket 4.1 06:33:22 10° SSW 06:38:28 57° WNW 06:43:34 10° N
SL-27 R/B 4.5 06:40:40 10° W 06:42:42 14° WNW 06:44:44 10° NNW
CZ-3 R/B 3.5 06:33:04 10° WNW 06:59:19 42° SW 07:06:18 10° SSE
